Regional Weather Roundup
Issued by NWS

Home | Current Version | Previous Version | Graphics & Text | Print | Product List | Glossary On
Versions: 1 2 3 4 5 6 7 8 9 10 11 12 13 14 15 16 17 18 19 20 21 22 23 24 25 26 27 28 29 30 31 32 33 34 35 36 37 38 39 40 41 42 43 44 45 46 47 48 49 50
000
ASUS43 KMPX 211901
RWRMN
WEATHER ROUNDUP FOR MINNESOTA
NATIONAL WEATHER SERVICE TWIN CITIES/CHANHASSEN MN
100 PM CST SAT JAN 21 2017


NOTE: "FAIR" INDICATES FEW OR NO CLOUDS BELOW 12,000 FEET WITH NO
SIGNIFICANT WEATHER AND/OR OBSTRUCTIONS TO VISIBILITY. N/A MEANS
CURRENT SKY AND/OR WEATHER CONDITIONS ARE NOT AVAILABLE.

MNZ060>063-068>070-212000-
   Twin Cities Metro

CITY           SKY/WX    TMP DP  RH WIND       PRES   REMARKS
TWIN CITIES    CLOUDY    37  34  89 SE7       29.39S
ST PAUL        CLOUDY    37  36  96 SE6       29.40F
CRYSTAL        CLOUDY    38  33  82 SE3       29.38F
BLAINE         CLOUDY    37  37 100 E8        29.38F FOG
LAKEVILLE      FOG       34  34 100 CALM      29.38F VSB 1/2
EDEN PRAIRIE   CLOUDY    38  35  89 E7        29.37F
SOUTH ST PAUL  CLOUDY    37  37  97 CALM      29.39S
LAKE ELMO      CLOUDY    36  36 100 E3        29.40S
$$
MNZ001>005-007-008-013>017-022>024-027-028-212000-
   Northwest Minnesota

CITY           SKY/WX    TMP DP  RH WIND       PRES   REMARKS
BEMIDJI        FOG       33  33 100 E6        29.42F VSB 1/2 WCI  28
HALLOCK        CLOUDY    37  36  93 E3        29.43R
ROSEAU         CLOUDY    36  30  80 E6        29.45S
WARROAD        CLOUDY    34  30  86 E9        29.46S FOG     WCI  26
THIEF RVR FALL CLOUDY    37  33  85 E10       29.43S
CROOKSTON      CLOUDY    37  36  93 CALM      29.42S
FOSSTON        CLOUDY    36  36 100 E7        29.41F
DETROIT LAKES  CLOUDY    36  36 100 SE7       29.40S
MOORHEAD       CLOUDY    36  34  93 SE5       29.41S
PARK RAPIDS    CLOUDY    36  33  89 E3        29.40S
MAHNOMEN       DRIZZLE   35  34  94 E8        29.40S WCI  29
$$
MNZ006-009>011-018-025>026-212000-
   North Central Minnesota

CITY           SKY/WX    TMP DP  RH WIND       PRES   REMARKS
BAUDETTE       CLOUDY    34  33  96 SE7       29.46F WCI  28
FLAG ISLAND    CLOUDY    34  34 100 E5        29.46F WCI  30
INTL FALLS     CLOUDY    35  33  92 E5        29.47F WCI  31
WASKISH        CLOUDY    36  36 100 E5        29.46S
BIG FORK       CLOUDY    37  34  87 E6        29.46F
LONGVILLE      CLOUDY    36  36 100 CALM      29.42F
GRAND RAPIDS   FOG       36  35  96 VRB6      29.45F VSB 1
CRANE LAKE     CLOUDY    36  34  93 CALM      29.51S
ORR            CLOUDY    36  32  87 CALM      29.45F
COOK           CLOUDY    36  34  93 CALM      29.47F
WALKER         FOG       33  33  99 E5        29.42F VSB 1/2 WCI  29
$$
MNZ012-019>021-037-212000-
   Northeast Minnesota

CITY           SKY/WX    TMP DP  RH WIND       PRES   REMARKS
DULUTH         CLOUDY    35  34  96 E10       29.43F FOG     WCI  27
ELY            CLOUDY    36  34  93 E7        29.47F
HIBBING        CLOUDY    33  33 100 E8        29.44F FOG     WCI  26
EVELETH        CLOUDY    37  37  99 E3        29.46F FOG
DULUTH HARBOR  MIX PCPN  34  34 100 NE10      29.47F WCI  26
TWO HARBORS    DRIZZLE   37  34  87 E8        29.44F
SILVER BAY     CLOUDY    37  36  93 NE9       29.45F
GRAND MARAIS     N/A     37  35  92 NE9       29.51F
G MARAIS ARPRT DRIZZLE   32  28  86 NE8       29.48F WCI  25
$$
MNZ029>031-032-039>041-046>048-054>057-064-212000-
   West Central Minnesota

CITY           SKY/WX    TMP DP  RH WIND       PRES   REMARKS
FERGUS FALLS   CLOUDY    37  37 100 SE8       29.42F
WHEATON        DRZL/FOG  43  43 100 SE3       29.41S VSB 3/4
MORRIS         FOG       36  34  93 E8        29.37F VSB 1/2
ALEXANDRIA     CLOUDY    34  34 100 E10       29.38F FOG     WCI  26
ELBOW LAKE     CLOUDY    34  34 100 SE9       29.39S FOG     WCI  27
WADENA         FOG       34  34 100 E3        29.40S VSB 1/2
GLENWOOD       CLOUDY    34  34 100 E8        29.38F FOG     WCI  27
APPLETON       FOG       36  34  93 E5        29.38F VSB 1/2
BENSON         CLOUDY    37  36  93 SE3       29.40S
ORTONVILLE     FOG       34  32  93 CALM      29.38S VSB 3/4
MADISON        FOG       37  37 100 E3        29.38S VSB 1/4
WILLMAR        CLOUDY    36  36 100 CALM      29.40S FOG
$$
MNZ033>034-036-042>043-049>051-058-059-212000-
   Central Minnesota

CITY           SKY/WX    TMP DP  RH WIND       PRES   REMARKS
ST CLOUD       FOG       34  34 100 NE3       29.39F VSB 1/2
SAUK CENTRE    CLOUDY    34  34 100 E6        29.39S FOG     WCI  29
PAYNESVILLE    FOG       35  35 100 NE3       29.39F VSB 1/2
AITKIN         CLOUDY    37  34  87 NE7       29.40F FOG
PINE RIVER     CLOUDY    36  36 100 E6        29.45F
BRAINERD       CLOUDY    35  35 100 E5        29.41F FOG     WCI  31
STAPLES        CLOUDY    36  36 100 CALM      29.40F FOG
LONG PRAIRIE   FOG       32  32 100 NE3       29.40F VSB 1
LITTLE FALLS   CLOUDY    34  34 100 NE3       29.40F FOG
LITCHFIELD     FOG       36  36 100 E5        29.39S VSB<1/4
BUFFALO        CLOUDY    36  35  96 E6        29.40S FOG
MAPLE LAKE     FOG       37  37 100 NE6       29.39F VSB 3/4
HUTCHINSON     FOG       36  37 100 E5        29.39S VSB<1/4
$$
MNZ037-044-045-052-053-212000-
   East Central Minnesota

CITY           SKY/WX    TMP DP  RH WIND       PRES   REMARKS
PRINCETON      CLOUDY    37  36  93 N3        29.40F FOG
MORA           CLOUDY    34  32  93 NE3       29.42F FOG
CAMBRIDGE      CLOUDY    37  37 100 NE6       29.38F FOG
RUSH CITY      CLOUDY    36  34  93 NE5       29.40F FOG
MOOSE LAKE     LGT RAIN  34  34 100 NE5       29.41F WCI  30
HINCKLEY       DRIZZLE   36  36 100 NE5       29.41F
CLOQUET        DRIZZLE   36  34  93 E8        29.43F
MCGREGOR       CLOUDY    36  34  93 NE7       29.43F
$$
MNZ071>073-080-081-089-090-097-098-212000-
   Southwest Minnesota

CITY           SKY/WX    TMP DP  RH WIND       PRES   REMARKS
MONTEVIDEO     FOG       34  34 100 SE6       29.39S VSB 1/4 WCI  29
GRANITE FALLS  FOG       37  37 100 CALM      29.39S VSB 1/2
CANBY          CLOUDY    36  36 100 CALM      29.38S FOG
MARSHALL       CLOUDY    35  35 100 SE3       29.37F FOG
REDWOOD FALLS  FOG       35  34  96 SE5       29.38S VSB 1/4 WCI  31
OLIVIA         FOG       36  34  93 E5        29.38S VSB 1/2
PIPESTONE      FOG       36  36 100 W6        29.34F VSB 1/4
WINDOM         FOG       37  37 100 CALM      29.37S VSB 1/2
WORTHINGTON    MIX PCPN  37  36  96 CALM      29.36F VSB 1
JACKSON        FOG       36  36 100 SW5       29.37F VSB 1/2
TRACY          CLOUDY    38  38 100 CALM      29.37S FOG
SLAYTON        FOG       35  35 100 S3        29.36F VSB 1/2
$$
MNZ065>067-074>077-082>085-091>093-212000-
   South Central Minnesota

CITY           SKY/WX    TMP DP  RH WIND       PRES   REMARKS
MANKATO        FOG       37  36  96 SE5       29.39R VSB 1/4
NEW ULM        FOG       36  36 100 S6        29.39R VSB 1
ST JAMES       FOG       37  37 100 CALM      29.38F VSB 1/4
FAIRMONT       CLOUDY    38  37  97 SW7       29.38S FOG
GLENCOE        SNOW      37  37 100 E5        29.38S VSB 1/4
OWATONNA       FOG       37  36  93 CALM      29.38S VSB 1/4
WASECA         FOG       36  36 100 S3        29.39S VSB<1/4
ALBERT LEA     CLOUDY    37  37 100 W3        29.37R FOG
$$
MNZ078>079-086>088-094>096-212000-
   Southeast Minnesota

CITY           SKY/WX    TMP DP  RH WIND       PRES   REMARKS
ROCHESTER      FOG       35  35 100 S5        29.37F VSB 1/4 WCI  31
RED WING       CLOUDY    37  36  93 SE5       29.39F FOG
STANTON        CLOUDY    37  35  92 CALM      29.37F FOG
DODGE CENTER   FOG       36  36 100 CALM      29.36F VSB<1/4
WINONA         FOG       36  36 100 SE5       29.40F VSB 3/4
AUSTIN         FOG       36  36 100 S6        29.38R VSB 1/2
PRESTON        FOG       38  37  97 S3        29.38F VSB 3/4
$$
ABBREVIATIONS USED IN REMARKS
   TC - TEMPERATURES IN CELSIUS
  WCI - WIND CHILL INDEX
   HX - HEAT INDEX
  VSB - VISIBILITY
$$




USA.gov is the U.S. government's official web portal to all federal, state and local government web resources and services.